Tracking 18987 objects as of 24-Feb-2018
HD Live streaming from Space Station
objects crossing your sky now

NOAA 16 DEB

Track NOAA 16 DEB now!
10-day predictions


NORAD ID: 41145
Int'l Code: 2000-055CC
Perigee: 671.2 km
Apogee: 851.3 km
Inclination: 99.0 °
Period: 99.9 minutes
Semi major axis: 7132 km
RCS: Unknown
Launch date: September 21, 2000
Source: United States (US)
Launch site: AIR FORCE WESTERN TEST RANGE (AFWTR)

Note: This is SATELLITE DEBRIS
aabbcc
Your satellite tracking list
Your tracking list is empty




NASA's NSSDC Master Catalog

Two Line Element Set (TLE):
1 41145U 00055CC  18054.77434385 +.00001639 +00000-0 +47586-3 0  9996
2 41145 098.9990 177.2916 0126240 223.5066 135.6109 14.41329901117584
Source of the keplerian elements: AFSPC